Actual water levels and discharges of Vltava river

Vraňany

Date and time (UTC) H (cm) Q (m3/s)
5. 4. 2020 22:00 14 56
5. 4. 2020 21:00 13 56
5. 4. 2020 20:00 12 55
5. 4. 2020 19:00 14 56
5. 4. 2020 18:00 11 54
5. 4. 2020 17:00 10 53
5. 4. 2020 16:00 20 62
5. 4. 2020 15:00 13 56
5. 4. 2020 14:00 2 47
5. 4. 2020 13:00 6 50
5. 4. 2020 12:00 7 51
5. 4. 2020 11:00 1 46
5. 4. 2020 10:00 1 46

H - water level, Q - discharge

Praha-Chuchle

Date and time (UTC) H (cm) Q (m3/s)
5. 4. 2020 21:50 44 47
5. 4. 2020 21:00 44 47
5. 4. 2020 20:00 45 51
5. 4. 2020 19:00 45 51
5. 4. 2020 18:00 45 51
5. 4. 2020 17:00 44 47
5. 4. 2020 16:00 45 51
5. 4. 2020 15:00 44 47
5. 4. 2020 14:00 45 51
5. 4. 2020 13:00 44 47
5. 4. 2020 12:00 44 47
5. 4. 2020 11:00 44 47
5. 4. 2020 10:00 44 47
5. 4. 2020 09:00 44 47

H - water level, Q - discharge
more information

VD Vrané nad Vltavou

Date and time (UTC) H (m n. m.) Q (m3/s)
5. 4. 2020 21:40 200 35
5. 4. 2020 20:00 200 35
5. 4. 2020 19:00 200 35
5. 4. 2020 18:00 200 35
5. 4. 2020 17:00 200 35
5. 4. 2020 16:00 200 35
5. 4. 2020 15:00 200 35
5. 4. 2020 13:00 200 35
5. 4. 2020 12:00 200 35
5. 4. 2020 11:00 200 35
5. 4. 2020 10:00 200 35
5. 4. 2020 09:00 200 35
5. 4. 2020 08:00 200 35
5. 4. 2020 07:00 200 35

H - water level, Q - outflow

VD Štěchovice

Date and time (UTC) H (m n. m.) Q (m3/s)
5. 4. 2020 21:40 217 49
5. 4. 2020 20:00 219 59
5. 4. 2020 19:00 219 59
5. 4. 2020 18:00 219 59
5. 4. 2020 17:00 219 59
5. 4. 2020 16:00 219 59
5. 4. 2020 15:00 219 59
5. 4. 2020 13:00 219 59
5. 4. 2020 12:00 219 59
5. 4. 2020 11:00 219 59
5. 4. 2020 10:00 219 59
5. 4. 2020 09:00 219 59
5. 4. 2020 08:00 219 59
5. 4. 2020 07:00 219 59

H - water level, Q - outflow

VD Slapy

Date and time (UTC) H (m n. m.) Q (m3/s)
5. 4. 2020 21:40 270 0
5. 4. 2020 20:00 270 113
5. 4. 2020 19:00 270 113
5. 4. 2020 18:00 270 113
5. 4. 2020 17:00 270 113
5. 4. 2020 16:00 270 113
5. 4. 2020 15:00 270 113
5. 4. 2020 13:00 270 113
5. 4. 2020 12:00 270 113
5. 4. 2020 11:00 270 113
5. 4. 2020 10:00 270 113
5. 4. 2020 09:00 270 113
5. 4. 2020 08:00 270 113
5. 4. 2020 07:00 270 113

H - water level, Q - outflow

VD Kamýk

Date and time (UTC) H (m n. m.) Q (m3/s)
5. 4. 2020 21:40 283 -
5. 4. 2020 20:00 283 -
5. 4. 2020 19:00 283 -
5. 4. 2020 18:00 283 -
5. 4. 2020 17:00 283 -
5. 4. 2020 16:00 283 -
5. 4. 2020 15:00 283 -
5. 4. 2020 13:00 283 -
5. 4. 2020 12:00 283 -
5. 4. 2020 11:00 283 -
5. 4. 2020 10:00 283 -
5. 4. 2020 09:00 283 -
5. 4. 2020 08:00 283 -
5. 4. 2020 07:00 283 -

H - water level, Q - outflow

VD Orlík

Date and time (UTC) H (m n. m.) Q (m3/s)
5. 4. 2020 21:40 346 0
5. 4. 2020 20:00 346 231
5. 4. 2020 19:00 346 231
5. 4. 2020 18:00 346 231
5. 4. 2020 17:00 346 231
5. 4. 2020 16:00 346 231
5. 4. 2020 15:00 346 231
5. 4. 2020 13:00 346 231
5. 4. 2020 12:00 346 231
5. 4. 2020 11:00 346 231
5. 4. 2020 10:00 346 231
5. 4. 2020 09:00 346 231
5. 4. 2020 08:00 346 231
5. 4. 2020 07:00 346 231

H - water level, Q - outflow

VD Kořensko

Date and time (UTC) H (m n. m.) Q (m3/s)
5. 4. 2020 21:40 353 15
5. 4. 2020 20:00 352 23
5. 4. 2020 19:00 352 23
5. 4. 2020 18:00 352 23
5. 4. 2020 17:00 352 23
5. 4. 2020 16:00 352 23
5. 4. 2020 15:00 352 23
5. 4. 2020 13:00 352 23
5. 4. 2020 12:00 352 23
5. 4. 2020 11:00 352 23
5. 4. 2020 10:00 352 23
5. 4. 2020 09:00 352 23
5. 4. 2020 08:00 352 23
5. 4. 2020 07:00 352 23

H - water level, Q - outflow

VD Hněvkovice I - přehrada

Date and time (UTC) H (m n. m.) Q (m3/s)
- - -

H - water level, Q - outflow

České Budějovice

Date and time (UTC) H (cm) Q (m3/s)
5. 4. 2020 22:00 102 11
5. 4. 2020 21:00 103 11
5. 4. 2020 20:00 102 11
5. 4. 2020 19:00 104 11
5. 4. 2020 18:00 102 11
5. 4. 2020 17:00 102 11
5. 4. 2020 16:00 106 11
5. 4. 2020 15:00 101 13
5. 4. 2020 14:00 101 11
5. 4. 2020 13:00 103 12
5. 4. 2020 12:00 106 12
5. 4. 2020 11:00 100 13
5. 4. 2020 10:00 104 12

H - water level, Q - discharge
more information

Vyšší Brod

Date and time (UTC) H (cm) Q (m3/s)
5. 4. 2020 22:00 65 7
5. 4. 2020 21:00 66 8
5. 4. 2020 20:00 65 7
5. 4. 2020 19:00 65 7
5. 4. 2020 18:00 66 8
5. 4. 2020 17:00 66 8
5. 4. 2020 16:00 64 7
5. 4. 2020 15:00 64 7
5. 4. 2020 14:00 64 7
5. 4. 2020 13:00 64 7
5. 4. 2020 12:00 64 7
5. 4. 2020 11:00 64 7
5. 4. 2020 10:00 64 7

H - water level, Q - discharge
Source data
Labe Basin Vltava Basin Povodí Moravy ČHMÚ